Winchester, TN

5:42 AM CDT on September 20, 2019 (GMT -0500)
Winchester Municipal

Weather History for KBGF - August, 2019

Change the Weather History Date:

Saturday, August 24, 2019

  Actual Average (KTHA) Record (KTHA)
Temperature  
Mean Temperature 79 °F -  
Max Temperature 87 °F 87 °F 89 °F (2016)
Min Temperature 71 °F 64 °F 55 °F (2018)
Cooling Degree Days 14    
Growing Degree Days 29 (Base 50)    
Moisture  
Dew Point 71 °F    
Average Humidity 83    
Maximum Humidity 100    
Minimum Humidity 55    
Precipitation  
Precipitation 0.00 in - - ()
Sea Level Pressure  
Sea Level Pressure 30.04 in    
Wind  
Wind Speed 2 mph ()    
Max Wind Speed 13 mph    
Max Gust Speed 17 mph    
Visibility 8.4 miles    
Events Fog    
Averages and records for this station are not official NWS values.
T = Trace of Precipitation, MM = Missing Value Source: Averaged Metar Reports

Daily Weather History Graph

Daily Weather History Graph

Search for Another Location

Airport or City:

Astronomy

Aug. 24, 2019 Rise Set
Actual Time 7:10 AM EDT 8:22 PM EDT
Civil Twilight 6:44 AM EDT 8:48 PM EDT
Nautical Twilight 6:12 AM EDT 9:19 PM EDT
Astronomical Twilight 5:40 AM EDT 9:52 PM EDT
Moon 1:07 AM EDT (8/24) 3:31 PM EDT (8/24)
Length of Visible Light 14h 03m
Length of Day
13h 11m
Last Quarter, 39% of the Moon is Illuminated
Aug 24
Last Quarter
Aug 30
New
Sep 5
First Quarter
Sep 14
Full
Sep 21
Last Quarter

Hourly Weather History & Observations

Time (EDT) Temp. Heat Index Dew Point Humidity Pressure Visibility Wind Dir Wind Speed Gust Speed Precip Events Conditions
12:15 AM 71.6 °F - 71.6 °F 100% 30.04 in 10.0 mi Calm Calm - N/A   Partly Cloudy
12:35 AM 71.6 °F - 71.6 °F 100% 30.05 in 10.0 mi Calm Calm - N/A   Mostly Cloudy
12:55 AM 71.6 °F - 69.8 °F 94% 30.04 in 9.0 mi Calm Calm - N/A   Mostly Cloudy
1:15 AM 71.6 °F - 69.8 °F 94% 30.04 in 10.0 mi Calm Calm - N/A   Partly Cloudy
1:35 AM 71.6 °F - 69.8 °F 94% 30.04 in 10.0 mi Calm Calm - N/A   Partly Cloudy
1:55 AM 71.6 °F - 69.8 °F 94% 30.04 in 10.0 mi Calm Calm - N/A   Mostly Cloudy
2:35 AM 71.6 °F - 69.8 °F 94% 30.03 in 10.0 mi Calm Calm - N/A   Overcast
2:55 AM 71.6 °F - 69.8 °F 94% 30.03 in 7.0 mi Calm Calm - N/A   Overcast
3:35 AM 71.6 °F - 69.8 °F 94% 30.03 in 10.0 mi Calm Calm - N/A   Overcast
3:55 AM 71.6 °F - 71.6 °F 100% 30.03 in 9.0 mi Calm Calm - N/A   Overcast
4:15 AM 71.6 °F - 71.6 °F 100% 30.03 in 10.0 mi Calm Calm - N/A   Overcast
4:35 AM 71.6 °F - 71.6 °F 100% 30.03 in 8.0 mi Calm Calm - N/A   Overcast
4:55 AM 73.4 °F - 71.6 °F 94% 30.03 in 9.0 mi Calm Calm - N/A   Overcast
5:15 AM 71.6 °F - 71.6 °F 100% 30.03 in 8.0 mi North 4.6 mph - N/A   Overcast
5:35 AM 71.6 °F - 71.6 °F 100% 30.04 in 3.0 mi NNE 3.5 mph - N/A   Overcast
5:55 AM 71.6 °F - 71.6 °F 100% 30.04 in 0.8 mi Calm Calm - N/A   Overcast
6:15 AM 71.6 °F - 71.6 °F 100% 30.05 in 0.5 mi Calm Calm - N/A Fog Fog
6:35 AM 71.6 °F - 71.6 °F 100% 30.05 in 0.5 mi Calm Calm - N/A Fog Fog
6:55 AM 71.6 °F - 71.6 °F 100% 30.06 in 0.2 mi Calm Calm - N/A Fog Fog
7:15 AM 71.6 °F - 71.6 °F 100% 30.06 in 0.2 mi Calm Calm - N/A Fog Fog
7:35 AM 71.6 °F - 71.6 °F 100% 30.07 in 0.5 mi Calm Calm - N/A Fog Fog
7:55 AM 71.6 °F - 71.6 °F 100% 30.07 in 0.2 mi Calm Calm - N/A Fog Fog
8:15 AM 71.6 °F - 71.6 °F 100% 30.08 in 0.2 mi Calm Calm - N/A Fog Fog
8:35 AM 71.6 °F - 71.6 °F 100% 30.08 in 0.2 mi Calm Calm - N/A Fog Fog
8:55 AM 71.6 °F - 71.6 °F 100% 30.09 in 6.0 mi Calm Calm - N/A   Overcast
9:15 AM 71.6 °F - 71.6 °F 100% 30.08 in 10.0 mi East 3.5 mph - N/A   Overcast
9:35 AM 73.4 °F - 69.8 °F 88% 30.09 in 10.0 mi Calm Calm - N/A   Overcast
9:55 AM 73.4 °F - 69.8 °F 88% 30.08 in 10.0 mi Variable 3.5 mph - N/A   Overcast
10:15 AM 73.4 °F - 71.6 °F 94% 30.09 in 10.0 mi Calm Calm - N/A   Overcast
10:35 AM 75.2 °F - 71.6 °F 89% 30.09 in 10.0 mi Calm Calm - N/A   Overcast
10:55 AM 75.2 °F - 71.6 °F 89% 30.08 in 10.0 mi SSE 3.5 mph - N/A   Overcast
11:15 AM 75.2 °F - 71.6 °F 89% 30.08 in 10.0 mi ESE 4.6 mph - N/A   Overcast
11:35 AM 77.0 °F - 71.6 °F 83% 30.08 in 10.0 mi Calm Calm - N/A   Overcast
11:55 AM 77.0 °F - 71.6 °F 83% 30.08 in 10.0 mi Calm Calm - N/A   Overcast
12:15 PM 78.8 °F - 71.6 °F 78% 30.07 in 10.0 mi Calm Calm - N/A   Overcast
12:35 PM 80.6 °F 84.6 °F 71.6 °F 74% 30.07 in 10.0 mi Calm Calm - N/A   Mostly Cloudy
12:55 PM 82.4 °F 87.2 °F 71.6 °F 70% 30.06 in 10.0 mi NNE 3.5 mph - N/A   Mostly Cloudy
1:15 PM 82.4 °F 87.2 °F 71.6 °F 70% 30.05 in 10.0 mi Calm Calm - N/A   Scattered Clouds
1:35 PM 82.4 °F 87.2 °F 71.6 °F 70% 30.05 in 10.0 mi Variable 5.8 mph - N/A   Mostly Cloudy
1:55 PM 86.0 °F 91.8 °F 71.6 °F 62% 30.04 in 10.0 mi Calm Calm - N/A   Mostly Cloudy
2:15 PM 86.0 °F 91.8 °F 71.6 °F 62% 30.04 in 10.0 mi Variable 4.6 mph - N/A   Mostly Cloudy
2:55 PM 86.0 °F 90.4 °F 69.8 °F 58% 30.03 in 10.0 mi North 5.8 mph 12.7 mph N/A   Scattered Clouds
3:15 PM 87.8 °F 92.6 °F 69.8 °F 55% 30.02 in 10.0 mi North 5.8 mph - N/A   Scattered Clouds
3:55 PM 86.0 °F 90.4 °F 69.8 °F 58% 30.00 in 10.0 mi NNE 4.6 mph 11.5 mph N/A   Clear
4:15 PM 86.0 °F 91.8 °F 71.6 °F 62% 30.00 in 10.0 mi North 11.5 mph - N/A   Partly Cloudy
4:35 PM 87.8 °F 92.6 °F 69.8 °F 55% 29.99 in 10.0 mi North 11.5 mph - N/A   Partly Cloudy
4:55 PM 86.0 °F 90.4 °F 69.8 °F 58% 29.99 in 10.0 mi NNE 12.7 mph - N/A   Scattered Clouds
5:15 PM 87.8 °F 92.6 °F 69.8 °F 55% 29.99 in 10.0 mi North 12.7 mph - N/A   Partly Cloudy
5:35 PM 86.0 °F 90.4 °F 69.8 °F 58% 29.98 in 10.0 mi NNE 12.7 mph - N/A   Partly Cloudy
5:55 PM 86.0 °F 91.8 °F 71.6 °F 62% 29.99 in 10.0 mi NE 9.2 mph 15.0 mph N/A   Mostly Cloudy
6:15 PM 86.0 °F 91.8 °F 71.6 °F 62% 29.99 in 10.0 mi ENE 11.5 mph 17.3 mph N/A   Scattered Clouds
6:35 PM 84.2 °F 88.4 °F 69.8 °F 62% 29.99 in 10.0 mi NE 10.4 mph - N/A   Partly Cloudy
6:55 PM 84.2 °F 88.4 °F 69.8 °F 62% 30.00 in 10.0 mi NE 10.4 mph - N/A   Clear
7:15 PM 84.2 °F 89.6 °F 71.6 °F 66% 30.00 in 10.0 mi ENE 6.9 mph - N/A   Clear
7:35 PM 82.4 °F 87.2 °F 71.6 °F 70% 30.01 in 10.0 mi North 6.9 mph - N/A   Partly Cloudy
7:55 PM 82.4 °F 87.2 °F 71.6 °F 70% 30.02 in 10.0 mi NE 8.1 mph - N/A   Partly Cloudy
8:15 PM 80.6 °F 84.6 °F 71.6 °F 74% 30.02 in 10.0 mi NNE 6.9 mph - N/A   Partly Cloudy
8:35 PM 80.6 °F 83.9 °F 69.8 °F 70% 30.03 in 10.0 mi Calm Calm - N/A   Mostly Cloudy
8:55 PM 80.6 °F 84.6 °F 71.6 °F 74% 30.03 in 10.0 mi NNE 8.1 mph - N/A   Overcast
9:15 PM 78.8 °F - 71.6 °F 78% 30.04 in 10.0 mi ENE 5.8 mph - N/A   Mostly Cloudy
9:35 PM 77.0 °F - 69.8 °F 78% 30.04 in 10.0 mi ESE 3.5 mph - N/A   Scattered Clouds
9:55 PM 77.0 °F - 69.8 °F 78% 30.05 in 10.0 mi NE 3.5 mph - N/A   Scattered Clouds
10:15 PM 77.0 °F - 69.8 °F 78% 30.05 in 10.0 mi NNE 3.5 mph - N/A   Partly Cloudy
10:35 PM 75.2 °F - 69.8 °F 83% 30.05 in 10.0 mi Calm Calm - N/A   Clear
10:55 PM 73.4 °F - 69.8 °F 88% 30.05 in 10.0 mi Calm Calm - N/A   Partly Cloudy
11:15 PM 73.4 °F - 69.8 °F 88% 30.05 in 10.0 mi Calm Calm - N/A   Partly Cloudy
11:35 PM 73.4 °F - 69.8 °F 88% 30.05 in 10.0 mi Calm Calm - N/A   Mostly Cloudy
11:55 PM 71.6 °F - 69.8 °F 94% 30.05 in 10.0 mi Calm Calm - N/A   Scattered Clouds